TimeCST,TemperatureF,Dew PointF,Humidity,Sea Level PressureIn,VisibilityMPH,Wind Direction,Wind SpeedMPH,Gust SpeedMPH,PrecipitationIn,Events,Conditions,WindDirDegrees,DateUTC
12:51 AM,48.0,36.0,63,30.38,10.0,North,9.2,-,N/A,,Overcast,350,2013-01-04 06:51:00
1:51 AM,46.9,35.1,63,30.38,10.0,NNW,8.1,-,N/A,,Overcast,340,2013-01-04 07:51:00
2:51 AM,48.2,35.6,62,30.36,10.0,North,13.8,-,N/A,,Overcast,350,2013-01-04 08:51:00
3:51 AM,48.0,35.1,61,30.38,10.0,North,17.3,-,N/A,,Overcast,360,2013-01-04 09:51:00
4:51 AM,48.0,35.1,61,30.38,10.0,North,18.4,-,N/A,,Overcast,360,2013-01-04 10:51:00
5:51 AM,48.0,36.0,63,30.39,10.0,North,12.7,-,N/A,,Overcast,10,2013-01-04 11:51:00
6:51 AM,48.0,36.0,63,30.39,10.0,North,13.8,-,0.00,,Light Drizzle,10,2013-01-04 12:51:00
7:51 AM,48.9,37.0,64,30.42,10.0,NE,12.7,-,0.00,,Overcast,40,2013-01-04 13:51:00
8:47 AM,48.2,35.6,62,30.44,10.0,NNE,19.6,26.5,0.00,,Light Drizzle,30,2013-01-04 14:47:00
8:51 AM,48.9,36.0,61,30.43,10.0,NNE,18.4,25.3,0.00,,Light Drizzle,30,2013-01-04 14:51:00
9:51 AM,50.0,36.0,59,30.44,10.0,NNE,19.6,-,0.00,,Light Drizzle,30,2013-01-04 15:51:00
10:51 AM,51.1,36.0,56,30.44,10.0,NNE,16.1,25.3,0.00,,Overcast,30,2013-01-04 16:51:00
11:51 AM,51.1,36.0,56,30.42,10.0,NNE,19.6,-,N/A,,Overcast,20,2013-01-04 17:51:00
12:51 PM,52.0,36.0,54,30.39,10.0,NNE,17.3,-,N/A,,Overcast,30,2013-01-04 18:51:00
1:51 PM,51.8,35.6,54,30.37,10.0,NNE,15.0,-,N/A,,Overcast,30,2013-01-04 19:51:00
2:51 PM,52.0,35.1,53,30.36,10.0,NNE,15.0,-,N/A,,Overcast,30,2013-01-04 20:51:00
3:51 PM,52.0,35.1,53,30.35,10.0,North,16.1,-,N/A,,Overcast,10,2013-01-04 21:51:00
4:51 PM,51.1,35.1,54,30.36,10.0,North,15.0,-,N/A,,Overcast,10,2013-01-04 22:51:00
5:51 PM,51.1,36.0,56,30.35,10.0,NNE,13.8,-,N/A,,Overcast,20,2013-01-04 23:51:00
6:51 PM,51.1,36.0,56,30.37,10.0,North,10.4,-,N/A,,Overcast,10,2013-01-05 00:51:00
7:51 PM,50.0,37.0,61,30.37,10.0,North,12.7,-,N/A,,Overcast,10,2013-01-05 01:51:00
8:51 PM,50.0,37.0,61,30.38,10.0,North,9.2,-,N/A,,Overcast,360,2013-01-05 02:51:00
9:51 PM,50.0,37.0,61,30.38,10.0,North,10.4,-,N/A,,Overcast,360,2013-01-05 03:51:00
10:51 PM,50.0,37.0,61,30.37,10.0,North,12.7,-,N/A,,Overcast,360,2013-01-05 04:51:00
11:51 PM,50.0,37.0,61,30.36,10.0,North,15.0,-,N/A,,Overcast,360,2013-01-05 05:51:00